Brainerd, MN

11:43 PM CST on November 17, 2017 (GMT -0600)
Brainerd-Crow Wing County Regional

Weather History for KBRD - September, 2013

Change the Weather History Date:

Wednesday, September 25, 2013

  Actual Average Record
Temperature  
Mean Temperature 60 °F 54 °F  
Max Temperature 73 °F 64 °F 85 °F (1920)
Min Temperature 48 °F 43 °F 23 °F (1947)
Degree Days  
Heating Degree Days 4 11  
Month to date heating degree days 172  
Cooling Degree Days 0 0  
Month to date cooling degree days 28  
Growing Degree Days 10 (Base 50)    
Moisture  
Dew Point 48 °F    
Average Humidity 85    
Maximum Humidity 100    
Minimum Humidity 46    
Precipitation  
Precipitation 0.00 in 0.11 in 1.13 in (1973)
Month to date precipitation 2.66  
Snow  
Snow 0.00 in 0.00 in - ()
Month to date snowfall 0.0  
Snow Depth -    
Sea Level Pressure  
Sea Level Pressure 29.95 in    
Wind  
Wind Speed 1 mph (SSE)    
Max Wind Speed 12 mph    
Max Gust Speed 16 mph    
Visibility 4 miles    
Events Fog    
T = Trace of Precipitation, MM = Missing Value Source: NWS Daily Summary

Daily Weather History Graph

Daily Weather History Graph

Search for Another Location

Airport or City:

Trip Planner

Search our weather history database for the weather conditions in past years. The results will help you decide how hot, cold, wet, or windy it might be!

Date:

Astronomy

Sep. 25, 2013 Rise Set
Actual Time 7:07 AM CDT 7:07 PM CDT
Civil Twilight 6:37 AM CDT 7:37 PM CDT
Nautical Twilight 6:02 AM CDT 8:12 PM CDT
Astronomical Twilight 5:26 AM CDT 8:48 PM CDT
Moon 10:56 PM CDT (9/25) 1:32 PM CDT (9/25)
Length of Visible Light 13h 00m
Length of Day
12h 00m
Waning Gibbous, 64% of the Moon is Illuminated
Sep 25
Waning Gibbous
Sep 26
Last Quarter
Oct 4
New
Oct 11
First Quarter
Oct 18
Full

Hourly Weather History & Observations

Time (CDT) Temp. Dew Point Humidity Pressure Visibility Wind Dir Wind Speed Gust Speed Precip Events Conditions
12:00 AM 51.8 °F 50.0 °F 94% 29.96 in 1.8 mi Calm Calm - N/A   Clear
12:10 AM 51.8 °F 48.2 °F 88% 29.96 in 0.8 mi Calm Calm - N/A   Clear
12:22 AM 51.8 °F 50.0 °F 94% 29.96 in 1.8 mi Calm Calm - N/A   Clear
12:24 AM 51.8 °F 50.0 °F 94% 29.96 in 3.0 mi Calm Calm - N/A   Clear
12:31 AM 50.0 °F 48.2 °F 94% 29.96 in 1.0 mi Calm Calm - N/A   Clear
12:38 AM 51.8 °F 48.2 °F 88% 29.96 in 0.5 mi Calm Calm - N/A Fog Fog
12:47 AM 51.8 °F 48.2 °F 88% 29.96 in 1.5 mi Calm Calm - N/A   Clear
12:53 AM 50.0 °F 48.9 °F 96% 29.97 in 1.8 mi Calm Calm - N/A   Clear
12:56 AM 48.2 °F 48.2 °F 100% 29.96 in 0.8 mi Calm Calm - N/A   Clear
1:06 AM 50.0 °F 48.2 °F 94% 29.96 in 1.5 mi Calm Calm - N/A   Clear
1:16 AM 50.0 °F 46.4 °F 87% 29.96 in 1.2 mi Calm Calm - N/A   Clear
1:32 AM 51.8 °F 48.2 °F 88% 29.96 in 2.0 mi Calm Calm - N/A   Clear
1:44 AM 48.2 °F 46.4 °F 93% 29.96 in 1.2 mi Calm Calm - N/A   Clear
1:53 AM 50.0 °F 48.0 °F 93% 29.97 in 1.2 mi Calm Calm - N/A   Clear
1:59 AM 50.0 °F 48.2 °F 94% 29.96 in 2.0 mi Calm Calm - N/A   Clear
2:08 AM 50.0 °F 46.4 °F 87% 29.96 in 3.0 mi Calm Calm - N/A   Clear
2:14 AM 50.0 °F 48.2 °F 94% 29.96 in 1.8 mi Calm Calm - N/A   Clear
2:21 AM 50.0 °F 48.2 °F 94% 29.96 in 0.8 mi Calm Calm - N/A   Clear
2:33 AM 50.0 °F 48.2 °F 94% 29.96 in 1.5 mi Calm Calm - N/A   Clear
2:37 AM 50.0 °F 46.4 °F 87% 29.96 in 3.0 mi Calm Calm - N/A   Clear
2:49 AM 48.2 °F 46.4 °F 93% 29.96 in 1.8 mi Calm Calm - N/A   Clear
2:50 AM 48.9 °F 46.9 °F 93% 29.97 in 1.8 mi Calm Calm - N/A   Clear
3:01 AM 48.2 °F 46.4 °F 93% 29.96 in 3.0 mi Calm Calm - N/A   Clear
3:26 AM 48.2 °F 46.4 °F 93% 29.96 in 1.8 mi Calm Calm - N/A   Clear
3:34 AM 48.2 °F 46.4 °F 93% 29.96 in 1.0 mi Calm Calm - N/A   Clear
3:39 AM 48.2 °F 46.4 °F 93% 29.96 in 2.0 mi Calm Calm - N/A   Clear
3:46 AM 48.2 °F 46.4 °F 93% 29.96 in 4.0 mi Calm Calm - N/A   Clear
3:53 AM 48.9 °F 46.9 °F 93% 29.96 in 2.0 mi Calm Calm - N/A   Clear
4:10 AM 50.0 °F 46.4 °F 87% 29.96 in 1.5 mi Calm Calm - N/A   Clear
4:15 AM 50.0 °F 46.4 °F 87% 29.96 in 3.0 mi Calm Calm - N/A   Clear
4:23 AM 48.2 °F 46.4 °F 93% 29.96 in 2.0 mi Calm Calm - N/A   Clear
4:34 AM 48.2 °F 46.4 °F 93% 29.96 in 3.0 mi Calm Calm - N/A   Clear
4:36 AM 48.2 °F 46.4 °F 93% 29.96 in 1.8 mi Calm Calm - N/A   Clear
4:41 AM 48.2 °F 46.4 °F 93% 29.96 in 0.8 mi Calm Calm - N/A   Clear
4:53 AM 50.0 °F 46.9 °F 89% 29.96 in 1.0 mi Calm Calm - N/A   Clear
5:03 AM 48.2 °F 46.4 °F 93% 29.96 in 0.8 mi Calm Calm - N/A   Clear
5:15 AM 48.2 °F 46.4 °F 93% 29.96 in 1.5 mi Calm Calm - N/A   Clear
5:18 AM 48.2 °F 46.4 °F 93% 29.96 in 4.0 mi Calm Calm - N/A   Clear
5:41 AM 48.2 °F 46.4 °F 93% 29.96 in 2.0 mi Calm Calm - N/A   Clear
5:43 AM 48.2 °F 46.4 °F 93% 29.96 in 1.0 mi Calm Calm - N/A   Clear
5:50 AM 48.2 °F 46.4 °F 93% 29.96 in 0.5 mi Calm Calm - N/A Fog Fog
5:53 AM 48.9 °F 46.0 °F 90% 29.97 in 0.8 mi Calm Calm - N/A   Clear
5:56 AM 51.8 °F 46.4 °F 82% 29.96 in 1.5 mi Calm Calm - N/A   Clear
5:58 AM 51.8 °F 48.2 °F 88% 29.96 in 3.0 mi Variable 3.5 mph - N/A   Clear
6:53 AM 50.0 °F 46.9 °F 89% 29.97 in 2.5 mi Calm Calm - N/A   Clear
6:55 AM 48.2 °F 46.4 °F 93% 29.96 in 1.0 mi Calm Calm - N/A   Clear
6:59 AM 48.2 °F 46.4 °F 93% 29.96 in 0.2 mi Calm Calm - N/A Fog Fog
7:07 AM 48.2 °F 46.4 °F 93% 29.96 in 0.2 mi Calm Calm - N/A Fog Fog
7:21 AM 50.0 °F 48.2 °F 94% 29.96 in 1.2 mi Calm Calm - N/A   Partly Cloudy
7:24 AM 51.8 °F 48.2 °F 88% 29.96 in 3.0 mi Calm Calm - N/A   Partly Cloudy
7:53 AM 51.1 °F 48.9 °F 92% 29.98 in 2.5 mi SE 3.5 mph - N/A   Clear
8:01 AM 51.8 °F 50.0 °F 94% 29.96 in 4.0 mi SE 4.6 mph - N/A   Clear
8:53 AM 55.9 °F 51.1 °F 84% 29.97 in 6.0 mi SE 4.6 mph - N/A   Haze
9:53 AM 61.0 °F 54.0 °F 78% 29.98 in 9.0 mi South 4.6 mph - N/A   Clear
10:53 AM 66.0 °F 54.0 °F 65% 29.97 in 10.0 mi SSE 8.1 mph - N/A   Clear
11:53 AM 70.0 °F 54.0 °F 57% 29.96 in 10.0 mi South 10.4 mph - N/A   Clear
12:53 PM 71.1 °F 52.0 °F 51% 29.94 in 10.0 mi SSE 11.5 mph - N/A   Clear
1:53 PM 72.0 °F 50.0 °F 46% 29.92 in 10.0 mi SSE 9.2 mph - N/A   Clear
2:53 PM 73.0 °F 52.0 °F 48% 29.90 in 10.0 mi SSE 8.1 mph - N/A   Clear
3:53 PM 73.0 °F 51.1 °F 46% 29.89 in 10.0 mi SSE 9.2 mph 16.1 mph N/A   Clear
4:53 PM 72.0 °F 50.0 °F 46% 29.88 in 10.0 mi SSE 11.5 mph - N/A   Clear
5:53 PM 70.0 °F 51.1 °F 51% 29.88 in 10.0 mi SE 6.9 mph - N/A   Clear
6:53 PM 66.0 °F 52.0 °F 60% 29.88 in 10.0 mi Calm Calm - N/A   Clear
7:53 PM 63.0 °F 52.0 °F 67% 29.89 in 10.0 mi SE 4.6 mph - N/A   Clear
8:53 PM 57.9 °F 51.1 °F 78% 29.91 in 10.0 mi Calm Calm - N/A   Clear
9:53 PM 60.1 °F 51.1 °F 72% 29.90 in 10.0 mi SE 9.2 mph - N/A   Clear
10:53 PM 60.1 °F 50.0 °F 69% 29.91 in 10.0 mi SE 9.2 mph - N/A   Clear
11:53 PM 60.1 °F 48.0 °F 64% 29.91 in 10.0 mi SE 6.9 mph - N/A   Clear